Weather Roundup
Issued by NWS

Home | Current Version | Previous Version | Text Only | Print | Product List | Glossary On
Versions: 1 2 3 4 5 6 7 8 9 10 11 12 13 14 15 16 17 18 19 20 21 22 23 24 25 26 27 28 29 30 31 32 33 34 35 36 37 38 39 40 41 42 43 44 45 46 47 48 49 50
000
NZUS93 KARX 270959
HRRWXR

CURRENT HOURLY OBSERVATIONS ACROSS
MUCH OF THE UPPER MISSISSIPPI VALLEY
NATIONAL WEATHER SERVICE LA CROSSE WI
500 AM CDT THU JUL 27 2017


...SOUTHEAST MINNESOTA...


CITY           SKY/WX    TMP DP  RH WIND       PRES   REMARKS
ROCHESTER      CLEAR     62  60  93 NW8       30.04S
ROCHESTER/MAYO FAIR      65  63  93 NW3       30.04S
WINONA         FOG       64  63  94 CALM      30.02S VSB 1
AUSTIN         CLEAR     63  59  88 N6        30.04S
ALBERT LEA     CLEAR     63  63 100 N6        30.04F
DODGE CENTER   CLEAR     63  59  88 NW6       30.05R
PRESTON        CLEAR     62  59  90 N6        30.03S
OWATONNA         N/A     61  59  94 CALM      30.05S FOG
FARIBAULT      CLEAR     63  63 100 CALM      30.06R
$$

...ELSEWHERE IN MINNESOTA...


CITY           SKY/WX    TMP DP  RH WIND       PRES   REMARKS
MINNEAPOLIS    CLEAR     68  60  75 N8        30.05R
INTNL FALLS    FOG       50  48  93 CALM      30.08S VSB 1/4
DULUTH         CLEAR     60  59  96 CALM      30.08R
RED WING       FOG       63  61  94 CALM      30.02S VSB 1/2
REDWOOD FALLS  CLEAR     64  60  87 N6        30.07F
MANKATO        CLEAR     62  60  93 CALM      30.06S
WORTHINGTON    CLEAR     59  57  93 NW5       30.09F
FAIRMONT       CLEAR     62  60  93 N6        30.06S
$$

...SOUTHWEST WISCONSIN...


CITY           SKY/WX    TMP DP  RH WIND       PRES   REMARKS
LA CROSSE      CLEAR     68  66  93 NW7       29.99R
PRAIRIE DU CHI CLEAR     71  69  94 CALM      29.96S
BOSCOBEL       FOG       68  67  96 CALM      29.97S VSB 1/4
LONE ROCK      PTCLDY    66  66 100 W5        29.96S FOG
PLATTEVILLE    CLEAR     69  69 100 N7        29.97R
FORT MC COY    PTCLDY    58  58 100 CALM      30.01R FOG
MAUSTON-NEW LI SUNNY     65  65  99 CALM      29.99R FOG
VIROQUA        FAIR      67  67 100 CALM      30.01R
WIS DELLS      PTCLDY    66  65  96 CALM      29.98R FOG
$$

...ELSEWHERE IN WISCONSIN...


CITY           SKY/WX    TMP DP  RH WIND       PRES   REMARKS
MILWAUKEE      CLOUDY    72  70  93 CALM      29.94R
MADISON        MOCLDY    69  69 100 N8        29.95R FOG
GREEN BAY      CLEAR     63  63 100 N6        29.98R
EAU CLAIRE     FOG       60  60 100 CALM      30.02R VSB 1/2
BLACK RVR FLS  FOG       54  54 100 CALM      30.01R VSB<1/4
MEDFORD        CLEAR     55  55  99 N3        30.04R
WAUSAU         CLEAR     60  59  96 NW5       30.02R
WIS RAPIDS     CLEAR     61  61 100 NE5       30.02R
MARSHFIELD     CLEAR     62  56  80 N6        30.02R
RICE LAKE      CLEAR     59  58  97 CALM      30.07R FOG
$$

...NORTHEAST IOWA...


CITY           SKY/WX    TMP DP  RH WIND       PRES   REMARKS
WATERLOO       CLEAR     68  66  93 N12       29.97R
DUBUQUE          N/A    N/A N/A N/A MISG      29.96S
DECORAH        CLEAR     66  64  94 N7        30.00R
MASON CITY     CLEAR     61  59  93 N9        30.04S
CHARLES CITY   CLEAR     64  64 100 N7        30.01F
OELWEIN        CLEAR     68  68 100 N7        30.00R
$$

...ELSEWHERE IN IOWA...


CITY           SKY/WX    TMP DP  RH WIND       PRES   REMARKS
DES MOINES     PTCLDY    71  69  93 N7        29.97S
IOWA CITY      CLOUDY    75  70  84 N6        29.96R
FORT DODGE     CLEAR     64  61  88 N6        30.03S
MARSHALLTOWN   CLEAR     70  69  97 N9        29.98R
CEDAR RAPIDS   NOT AVBL
$$

...NORTHERN ILLINOIS...


CITY           SKY/WX    TMP DP  RH WIND       PRES   REMARKS
CHICAGO-OHARE  MOCLDY    73  70  90 NW3       29.93R
CHICAGO-MIDWAY CLOUDY    74  73  97 NW3       29.93R FOG
MOLINE         CLOUDY    73  69  87 N3        29.92S
ROCKFORD       CLOUDY    73  70  90 N7        29.95R
PEORIA         FOG       72  72 100 SW3       29.93R VSB 1/4
$$

NOTE: "FAIR" INDICATES FEW OR NO CLOUDS BELOW 12,000 FEET WITH NO
SIGNIFICANT WEATHER AND/OR OBSTRUCTIONS TO VISIBILITY. WIND
SPEEDS ARE IN MILES-PER-HOUR.




USA.gov is the U.S. government's official web portal to all federal, state and local government web resources and services.